Regional Weather Roundup
Issued by NWS

Home | Current Version | Previous Version | Graphics & Text | Print | Product List | Glossary On
Versions: 1 2 3 4 5 6 7 8 9 10 11 12 13 14 15 16 17 18 19 20 21 22 23 24 25 26 27 28 29 30 31 32 33 34 35 36 37 38 39 40 41 42 43 44 45 46 47 48 49 50
916
ASUS43 KFSD 201702
RWRSD

WEATHER ROUNDUP FOR SOUTH DAKOTA
NATIONAL WEATHER SERVICE SIOUX FALLS SD
1100 AM CST MON FEB 20 2017

NOTE: "FAIR" INDICATES FEW OR NO CLOUDS BELOW 12,000 FEET WITH NO
SIGNIFICANT WEATHER AND/OR OBSTRUCTIONS TO VISIBILITY.


SDZ001>005-009-010-012>017-201800-
NORTHWEST AND NORTH CENTRAL SOUTH DAKOTA

CITY           SKY/WX    TMP DP  RH WIND       PRES   REMARKS
BUFFALO          N/A     52  29  41 W24       29.73R
FAITH            N/A     50  37  61 NW23      29.77R
MOBRIDGE       CLOUDY    41  36  82 NW13      29.71R
$$

SDZ012>016-024>037-041>051-057-063-072>074-201800-
SOUTHWEST AND SOUTH CENTRAL SOUTH DAKOTA

CITY           SKY/WX    TMP DP  RH WIND       PRES   REMARKS
RAPID CTY ARPT SUNNY     56  28  34 NW18      29.83R
PIERRE         MOSUNNY   46  43  89 NW21      29.73R
CUSTER         SUNNY     43  24  47 W12G20    29.86R
ELLSWORTH AFB  SUNNY     55  27  34 NW20G25   29.82R
PHILIP         MOSUNNY   54  42  64 W18       29.81R
PINE RIDGE     SUNNY     50  39  66 W12       29.88R
SPEARFISH      FAIR      50  30  46 W13G22    29.84S
WINNER         LGT RAIN  48  44  86 NW16      29.77R
$$

SDZ004>011-016>023-039-040-201800-
NORTHEAST SOUTH DAKOTA

CITY           SKY/WX    TMP DP  RH WIND       PRES   REMARKS
ABERDEEN       CLOUDY    44  39  82 NW24G30   29.64R
WATERTOWN      FOG       50  50 100 S9        29.63R VSB 1/4
BROOKINGS      CLOUDY    54  52  93 S14       29.64  FOG
SISSETON         N/A     52  52 100 SW10      29.61R
$$

SDZ017-020-022-023-036>040-048>070-201800-
SOUTHEAST SOUTH DAKOTA

CITY           SKY/WX    TMP DP  RH WIND       PRES   REMARKS
SIOUX FALLS    CLOUDY    57  56  96 S13       29.66S FOG
HURON          CLOUDY    46  43  89 NW24G32   29.65R
CHAMBERLAIN    CLOUDY    50  43  75 NW20G28   29.73R
MITCHELL       PTSUNNY   53  47  79 W16G22    29.65R
YANKTON        CLOUDY    59  52  77 SW14      29.65R
$$

ABBREVIATIONS USED IN REMARKS
   TC - TEMPERATURE IN CELSIUS
  WCI - WIND CHILL INDEX
   HX - HEAT INDEX
  VSB - VISIBILITY





USA.gov is the U.S. government's official web portal to all federal, state and local government web resources and services.